GFSGL_925_temp_021.txt.gz
Temp
17 17 17 16 16 15 15 15 15 15 15 15 15 15 15 15 14 15 14 14 14 14 14 14 14 14 14 14 15 15 15 16 15 14 14 13 14 13 13 14 14 13 13
18 17 17 16 16 15 15 15 15 15 15 15 15 15 15 14 14 14 14 14 14 14 14 14 14 14 14 15 15 15 15 15 15 14 14 14 14 14 14 14 13 13 13
18 17 17 16 16 15 15 15 15 15 15 15 15 15 14 14 14 14 14 14 14 14 14 14 14 14 14 14 14 14 14 14 14 14 14 14 13 13 13 13 13 13 14
18 18 17 16 16 16 15 15 15 15 15 15 15 14 14 14 14 14 14 14 14 14 14 15 15 15 15 15 14 14 14 14 14 14 14 13 13 13 13 13 13 14 13
18 18 17 16 16 16 16 15 15 15 15 15 15 14 14 13 13 14 14 14 14 14 14 14 14 15 14 14 14 14 14 14 14 14 14 13 13 13 13 13 14 13 13
18 18 17 17 16 16 16 15 16 16 15 15 15 15 14 14 13 13 13 14 14 14 14 14 14 14 14 14 14 14 14 14 14 14 13 13 13 14 13 13 14 15 15
18 18 17 17 17 16 16 16 16 16 15 15 15 15 14 13 13 13 13 14 14 14 14 14 14 14 14 14 14 14 14 14 14 14 13 14 13 14 14 14 15 16 16
19 18 18 18 17 17 16 16 15 15 15 14 14 14 14 13 13 14 13 14 14 14 14 14 14 14 14 14 14 14 14 14 15 15 15 15 15 15 15 16 15 14 13
19 19 18 18 18 17 17 16 15 15 15 14 14 14 14 13 13 14 14 14 14 14 14 14 14 14 14 15 15 14 14 14 15 15 15 16 16 16 16 16 15 17 16
20 19 19 18 18 18 17 16 15 15 15 16 14 14 14 14 14 14 14 14 14 14 14 14 14 14 15 15 15 15 15 14 15 15 15 16 16 16 16 16 16 18 16
20 19 19 18 18 18 16 16 15 15 15 15 15 14 14 14 14 14 14 14 14 14 14 14 14 15 15 15 15 16 16 17 16 16 15 15 15 15 15 16 15 16 16
20 19 19 18 18 17 16 16 16 15 15 15 15 15 14 14 14 14 14 15 14 15 15 15 15 15 15 15 16 17 17 17 16 15 15 14 14 13 14 15 15 15 14
19 19 19 18 18 17 17 16 16 16 17 17 17 16 15 14 14 15 15 15 16 16 16 16 15 15 15 15 16 16 17 15 16 16 16 15 14 12 14 14 14 14 13
19 19 18 18 18 17 18 17 18 17 18 18 18 18 16 15 15 14 15 15 16 16 16 16 16 15 15 15 15 15 15 16 16 17 16 13 11 11 12 12 12 11 11
19 19 18 19 17 17 18 18 18 18 18 18 18 18 18 17 17 16 16 15 15 16 16 15 15 15 15 15 15 14 15 14 15 15 14 12 12 12 11 11 11 11 12
19 19 19 19 18 18 18 16 17 17 19 18 18 18 18 18 18 18 17 17 17 17 16 16 16 17 17 17 16 15 14 14 15 14 13 13 13 12 12 11 12 12 11
20 20 19 19 19 19 18 19 18 16 17 18 18 18 18 19 18 18 17 17 17 16 17 17 17 17 17 17 17 17 16 15 15 15 14 14 13 13 11 12 12 11 11
20 19 20 20 20 19 19 19 19 19 18 17 17 17 17 17 18 18 17 17 14 14 17 18 18 17 17 17 17 17 16 15 14 14 14 14 13 13 12 12 11 11 10
20 19 20 20 20 20 20 19 19 20 20 20 18 16 17 17 17 16 17 17 17 16 16 17 17 17 17 16 16 16 16 15 14 14 13 13 12 12 12 12 11 10 9
20 20 20 20 20 19 20 20 20 20 20 20 19 19 15 15 14 14 14 14 17 17 17 17 17 17 16 16 16 16 15 14 13 13 13 13 12 12 12 11 10 6 6
21 19 19 20 21 20 20 20 20 20 20 20 20 19 18 17 18 18 16 15 16 17 17 17 17 17 16 16 16 15 15 15 14 13 13 12 12 12 11 11 8 6 6
21 20 19 21 21 20 21 20 20 20 20 20 20 20 18 18 19 19 18 17 17 17 17 17 17 17 17 16 16 15 16 16 14 13 13 12 11 10 10 8 7 6 5
21 21 20 20 21 20 19 21 21 20 21 21 21 20 16 16 18 19 19 18 17 16 16 16 17 17 16 16 16 16 16 16 15 14 12 11 11 10 8 7 5 4 4
22 21 20 21 21 20 20 20 20 20 21 21 21 20 19 17 18 19 19 18 17 17 17 16 16 17 17 16 15 15 15 15 14 13 12 11 10 8 6 6 5 4 5
21 20 20 20 20 20 20 20 20 21 20 20 20 20 20 18 18 18 18 18 18 17 17 16 16 16 16 16 16 15 15 15 13 12 10 9 9 8 6 5 5 5 4
20 18 18 19 19 19 19 19 19 20 20 19 19 20 20 19 19 18 18 17 17 17 16 16 16 17 17 17 17 15 15 15 12 11 11 9 8 5 4 4 5 4 4

GFSGL_925_temp_024.txt.gz
Temp
20 20 20 19 19 18 18 17 18 17 18 18 18 18 17 17 17 16 17 17 16 17 16 16 16 17 17 17 16 16 15 16 15 14 14 14 13 13 13 13 13 13 13
21 20 20 19 19 18 18 18 18 18 18 18 18 18 17 17 17 16 16 17 16 15 16 16 16 17 16 15 16 15 15 16 15 14 14 14 14 13 13 13 13 13 13
21 21 20 19 19 18 18 17 18 18 18 18 18 18 15 16 16 16 16 16 16 16 15 15 16 16 15 15 16 16 15 15 15 14 14 14 13 13 13 13 13 12 12
22 21 20 19 19 19 18 18 18 18 18 18 18 16 15 15 15 15 16 15 15 16 15 15 16 15 15 15 15 15 15 15 15 14 14 13 13 13 13 13 12 12 13
22 21 20 19 19 19 19 19 18 18 18 18 17 15 15 15 15 15 15 15 15 15 16 16 15 15 15 15 15 15 14 14 14 14 14 13 13 13 13 13 13 14 13
22 21 20 20 19 19 19 19 18 18 18 18 18 16 15 14 14 14 15 16 15 16 16 15 14 15 14 15 15 15 14 14 14 14 13 13 13 13 13 13 15 14 14
22 21 20 20 20 19 19 19 19 18 18 18 17 16 14 14 13 14 15 16 16 16 15 14 14 14 14 14 14 14 14 14 14 14 13 14 13 13 13 15 16 17 17
22 22 21 21 20 20 19 19 19 18 17 16 16 15 14 13 13 13 15 16 16 16 14 15 15 15 14 14 13 14 13 14 14 14 15 14 14 14 15 16 17 16 15
23 22 21 21 20 20 20 19 18 17 15 14 14 14 14 13 13 13 15 16 16 16 16 15 16 15 14 14 14 14 14 13 13 14 15 15 15 15 17 16 16 17 17
23 23 22 21 21 20 19 18 18 18 17 15 14 14 14 14 14 14 14 14 14 14 15 15 15 14 15 15 15 15 14 14 14 14 14 14 15 15 16 17 18 19 19
23 23 22 21 21 20 19 18 18 19 19 17 15 14 14 14 14 14 14 14 15 14 15 15 14 15 15 15 16 16 15 15 15 15 15 15 15 15 16 17 18 20 19
23 23 22 21 21 20 19 18 19 19 19 18 17 16 14 14 14 14 14 14 15 15 14 15 14 15 15 16 17 17 16 17 18 18 18 18 17 17 15 15 15 16 15
23 23 22 21 21 20 19 19 19 19 20 20 19 19 17 16 15 14 14 15 15 16 17 16 15 15 15 16 17 17 17 18 18 19 18 18 17 16 13 13 12 12 12
23 23 22 21 21 20 20 20 21 21 21 21 21 21 19 18 17 16 15 16 16 16 16 15 15 15 16 17 16 17 19 19 20 20 19 18 15 14 16 15 15 14 13
23 23 22 22 20 20 21 21 22 21 22 22 22 21 20 20 19 18 17 18 18 18 17 15 16 17 18 17 17 18 19 18 19 19 18 17 17 17 16 16 15 15 15
23 23 23 23 21 21 21 20 20 21 20 20 20 21 21 21 19 17 17 17 18 17 18 19 19 19 20 20 19 19 19 18 19 19 18 18 18 17 16 15 15 16 16
23 24 23 23 22 22 22 22 21 18 18 18 19 19 20 19 19 18 17 17 17 17 19 20 20 20 20 20 20 20 20 19 19 18 18 18 18 17 16 16 16 16 16
23 23 24 23 24 23 23 22 22 22 20 18 18 18 18 18 18 17 17 16 15 16 20 21 21 21 21 21 21 21 21 20 19 18 18 18 18 17 16 17 16 16 15
24 24 24 24 24 24 24 23 23 23 23 22 21 17 17 17 17 17 17 18 19 19 19 21 21 21 21 21 21 21 21 20 19 18 18 18 17 17 17 17 16 15 14
24 25 24 24 25 24 24 24 24 24 23 24 23 21 17 15 15 14 14 17 20 21 20 21 21 21 21 20 21 20 20 19 18 18 18 18 17 17 17 17 16 14 13
25 24 23 25 25 24 24 24 24 24 24 24 24 23 21 18 19 19 18 18 19 21 21 21 21 21 20 20 20 20 20 19 18 18 18 18 17 17 17 17 16 14 13
26 26 23 25 25 25 25 25 24 24 24 24 24 24 21 20 21 22 21 20 20 20 21 21 21 21 21 21 20 20 20 20 19 18 18 18 17 17 16 16 15 13 11
27 26 24 25 26 25 24 25 25 25 25 25 25 24 20 21 22 23 23 22 21 21 20 21 21 21 21 21 20 20 20 20 20 19 18 18 17 16 16 15 14 12 9
27 27 26 25 26 26 25 24 25 25 25 25 25 25 24 22 22 22 23 23 22 21 21 21 21 21 21 21 20 20 20 20 20 20 19 18 17 15 15 14 13 10 7
27 26 26 25 26 25 25 25 25 25 25 25 25 25 25 25 22 22 23 23 23 22 21 21 20 20 20 20 20 20 20 19 19 19 19 17 16 16 14 12 10 8 3
26 25 25 25 25 25 25 24 24 24 25 25 24 25 25 24 24 23 22 22 22 22 21 21 20 20 20 20 19 20 19 18 17 17 17 16 15 14 12 9 7 4 3

GFSGL_925_temp_030.txt.gz
Temp
22 22 21 21 20 20 19 19 19 20 19 19 18 18 18 18 18 18 17 17 17 17 17 17 17 17 18 17 17 18 18 16 15 14 13 14 13 13 12 13 13 13 13
23 21 21 21 20 19 19 18 19 19 20 20 19 19 19 18 18 18 17 17 17 17 17 17 16 17 17 17 17 17 17 15 14 14 13 13 13 13 13 13 13 13 13
23 21 21 20 19 19 19 19 19 20 20 20 20 20 19 17 17 17 17 17 17 17 18 18 17 17 17 17 17 16 16 14 14 14 13 13 13 13 13 13 12 12 12
24 21 21 20 19 19 19 19 20 20 20 20 20 19 18 17 17 17 17 17 17 17 16 16 16 16 16 16 16 15 14 14 13 13 13 13 13 12 12 12 12 11 11
23 21 20 20 20 19 19 19 19 21 20 19 19 17 16 17 16 16 17 17 17 16 16 16 15 15 16 15 15 14 14 14 13 13 13 13 12 12 11 11 11 11 11
21 21 21 20 20 19 19 19 20 20 20 19 18 17 17 15 16 16 16 17 17 17 15 15 15 15 15 15 14 14 14 13 13 14 13 13 12 11 11 11 11 11 10
24 21 21 21 21 20 19 19 18 18 19 18 17 17 16 15 15 16 16 16 17 16 16 15 15 15 15 14 14 14 14 14 14 14 13 12 11 12 12 12 12 13 12
24 22 22 21 21 21 20 19 18 18 18 18 18 17 15 14 15 16 16 17 16 16 16 15 15 14 14 14 14 14 13 14 14 13 13 13 14 14 14 14 14 14 13
25 23 22 22 21 20 19 18 18 18 18 18 17 17 15 15 15 16 16 17 16 16 16 15 14 14 14 14 14 13 13 13 14 14 15 15 14 14 14 14 14 14 14
25 25 22 22 21 20 19 18 18 18 17 17 16 16 15 15 15 15 16 16 15 15 15 14 14 14 14 14 13 13 13 13 14 14 14 14 15 15 15 15 15 15 14
25 25 22 22 21 20 19 18 18 18 17 16 16 15 15 14 15 15 16 16 15 15 14 14 14 14 14 14 14 13 13 14 14 14 14 14 14 15 16 16 16 16 15
25 25 24 23 22 20 19 18 18 18 17 16 15 15 14 14 15 16 16 16 17 17 15 14 14 14 14 14 14 14 13 13 13 13 13 13 13 14 16 16 16 16 17
26 25 23 23 21 21 19 18 19 19 18 17 16 16 15 14 14 15 16 16 17 16 15 15 15 15 15 15 15 14 13 14 14 14 14 14 15 16 16 16 16 16 18
25 24 23 23 21 21 21 19 20 19 20 20 18 17 16 15 14 15 15 15 17 16 15 15 15 16 15 15 14 14 15 15 15 15 16 16 16 16 16 16 15 15 16
25 24 23 23 22 21 22 22 22 21 21 21 19 19 18 17 16 15 16 16 16 16 15 15 16 16 16 15 15 16 17 17 17 18 18 17 16 16 16 15 15 15 15
25 24 23 23 23 22 21 20 21 21 22 21 21 20 19 19 17 17 17 17 16 16 16 17 17 16 16 17 17 17 18 19 19 19 19 18 17 16 16 16 16 16 16
25 24 24 24 23 23 23 22 20 19 21 21 21 21 21 19 18 18 18 18 17 17 18 18 19 19 18 18 18 19 20 20 20 20 19 19 18 18 18 17 17 17 17
25 25 25 24 23 24 23 23 23 21 20 19 20 20 21 20 19 18 18 18 17 18 18 20 20 20 21 20 20 20 21 20 21 21 20 19 19 19 19 18 18 18 17
25 25 25 24 25 24 24 24 24 23 22 21 19 19 19 19 18 18 18 18 17 18 18 20 21 21 22 22 21 21 21 21 20 21 21 20 20 20 19 19 18 18 18
25 26 25 25 25 25 25 25 25 24 23 22 19 17 17 17 16 17 17 17 19 19 19 19 20 22 22 22 22 22 22 22 21 20 20 20 20 19 19 19 18 18 18
26 25 25 25 26 26 26 26 26 25 24 23 22 20 19 17 17 17 16 17 18 20 21 21 21 21 23 22 22 22 22 22 22 21 20 20 20 20 19 19 19 19 19
27 26 25 25 27 27 26 26 26 26 26 25 24 22 20 19 19 19 18 17 18 19 21 22 22 22 22 23 23 22 22 22 22 22 21 21 20 20 20 19 19 19 19
28 27 26 26 26 27 27 27 27 26 26 26 26 22 19 18 20 20 20 19 19 19 19 20 21 22 23 23 23 23 23 22 22 22 22 21 21 20 20 20 19 19 19
29 29 28 26 26 27 27 27 27 27 27 27 27 23 19 20 21 21 21 21 20 20 20 20 20 21 22 23 23 23 23 23 22 22 22 22 21 20 20 20 19 19 19
29 29 29 28 27 26 27 27 27 27 27 27 27 26 23 21 22 23 23 22 22 22 22 21 21 21 21 22 22 23 23 23 22 22 22 22 21 21 20 20 20 19 18
27 29 28 29 27 27 26 27 27 27 27 27 27 27 26 23 23 23 23 23 24 23 23 23 22 22 22 22 22 22 23 23 23 22 22 22 22 21 21 20 20 18 15

GFSGL_925_temp_033.txt.gz
Temp
21 21 21 20 20 19 19 19 19 19 19 18 18 18 18 18 18 18 17 18 17 17 17 17 17 17 17 17 16 16 17 17 14 14 14 14 14 13 13 13 13 13 13
22 21 21 20 20 19 19 19 19 19 19 19 19 18 18 18 17 17 18 17 18 17 16 16 17 17 17 16 17 17 16 15 14 14 13 13 12 12 12 13 13 12 12
22 21 20 19 19 19 18 19 19 19 19 19 19 19 18 17 17 17 17 17 17 17 17 16 16 16 15 16 15 14 14 14 13 13 13 13 13 13 13 13 12 12 12
22 20 20 20 19 19 19 19 19 19 20 19 19 18 17 17 17 17 17 17 17 17 16 16 16 16 16 16 15 14 14 13 13 13 13 13 13 12 12 12 11 11 11
22 20 20 20 19 19 19 19 19 20 19 19 18 17 17 16 17 17 17 18 17 16 15 16 16 16 16 16 15 14 13 13 13 13 13 12 12 12 12 11 11 11 11
21 20 20 20 19 19 19 19 19 20 19 18 17 17 16 16 16 17 17 17 17 16 15 15 15 15 15 15 15 14 13 13 13 13 13 12 12 11 11 11 11 10 9
20 20 20 20 20 19 19 19 19 19 18 18 17 17 16 15 16 16 16 17 16 16 15 15 14 14 14 14 14 13 13 13 14 13 12 12 11 11 11 11 11 11 11
20 21 20 20 20 19 19 18 18 18 18 17 16 16 15 15 16 16 16 16 16 15 15 15 14 14 14 14 13 13 13 13 13 13 15 13 14 12 13 13 12 12 11
21 21 20 21 20 19 19 18 18 18 18 17 16 16 15 15 16 16 16 16 16 15 15 14 14 14 14 14 13 13 13 13 13 14 15 16 14 14 13 13 13 12 11
22 21 21 21 20 19 18 18 18 18 17 17 16 16 16 15 15 16 16 16 15 15 14 14 15 14 14 14 13 13 13 13 14 14 14 14 13 13 14 14 13 12 12
23 22 21 21 20 19 18 18 18 17 16 16 15 15 15 16 15 16 16 15 15 14 14 13 13 13 13 14 14 14 13 14 14 13 13 13 13 14 14 14 14 15 14
23 22 21 21 20 19 18 18 17 17 16 16 15 14 14 15 15 16 16 15 15 14 13 13 13 13 13 13 14 13 14 14 13 12 13 13 13 14 14 15 15 15 16
22 21 21 20 20 19 18 18 17 17 15 15 15 14 14 14 15 15 16 16 15 15 14 14 13 13 13 13 14 13 13 13 13 13 13 13 14 15 15 15 15 16 16
21 21 21 20 19 19 19 18 18 17 16 15 15 14 14 14 15 15 16 16 16 15 14 14 14 13 13 13 14 14 13 14 14 13 13 15 15 14 15 15 16 16 16
21 22 20 21 20 19 19 18 18 18 18 17 16 16 14 14 15 16 16 16 16 16 15 15 14 14 13 13 13 14 14 14 14 15 15 15 15 15 15 15 16 15 16
21 21 21 20 20 20 19 19 19 20 20 19 18 17 16 17 16 16 16 16 16 16 15 15 15 14 13 13 13 14 14 15 15 16 16 16 15 15 15 15 15 15 15
22 21 22 20 20 20 19 19 18 19 20 20 19 18 18 17 16 16 16 16 16 16 16 15 15 15 14 14 14 14 15 16 16 16 16 17 16 16 16 15 15 15 15
23 22 22 22 21 21 21 20 19 19 20 19 19 19 19 18 17 17 16 16 15 16 17 17 17 16 16 16 16 16 17 17 18 17 17 18 17 17 16 16 15 15 15
23 22 22 22 22 22 22 21 21 20 19 19 19 19 19 19 18 17 17 16 15 16 17 18 18 18 18 18 18 19 18 19 19 19 19 19 18 18 18 17 17 17 16
24 23 23 23 22 22 22 22 21 20 19 19 19 19 18 17 16 16 17 17 17 17 17 18 18 19 19 19 20 20 20 20 20 20 20 19 19 19 18 18 18 17 17
23 24 24 24 23 22 22 22 22 20 19 18 18 20 19 18 16 16 17 17 17 17 18 18 19 19 20 20 21 20 20 21 21 21 21 20 20 19 19 19 19 18 18
24 24 24 23 23 23 23 24 24 22 21 20 18 18 19 18 16 17 16 17 17 18 18 18 19 19 20 20 21 22 21 21 21 21 21 21 20 20 20 19 19 19 18
24 23 23 23 24 24 24 24 24 24 22 21 20 18 18 17 17 17 17 17 18 18 18 19 19 20 21 21 21 22 22 22 22 22 22 21 20 19 20 19 19 19 18
25 24 23 23 24 24 24 24 24 25 25 24 22 20 19 18 17 17 18 18 18 18 19 19 20 20 20 21 21 22 22 22 22 22 22 22 21 21 20 20 19 19 19
23 25 25 23 24 24 24 24 24 25 25 25 25 23 20 19 18 18 18 18 18 18 19 19 19 20 21 21 21 22 22 22 23 23 22 22 22 22 21 20 20 19 18
21 22 24 24 23 24 24 24 24 25 25 25 25 25 24 21 20 19 19 19 19 19 19 20 20 20 21 21 21 22 22 21 22 22 22 22 22 22 21 21 20 19 19